{"data":{"norad_id":59391,"epoch":"2026-05-25T04:00:03.998880Z","epoch_age_seconds":53913,"freshness":"FRESH","line1":"1 59391U 24062T   26145.16671295  .00904757  00000+0  25416-1 0  9996","line2":"2 59391  53.1581 262.9716 0002503 129.1451 269.9007 15.33713030  5901","mean_motion":15.3371303,"eccentricity":0.0002503,"inclination_deg":53.1581,"raan_deg":262.9716,"arg_perigee_deg":129.1451,"mean_anomaly_deg":269.9007,"bstar":0.025416,"rev_number":590,"period_min":93.889793711931,"perigee_km":463.0330483425,"apogee_km":466.45859548315,"semimajor_km":6842.8828219128,"source":"CELESTRAK","updated_at":"2026-05-25T13:38:18.936854Z"}}